Regional Weather Roundup
Issued by NWS

Home | Current Version | Previous Version | Text Only | Print | Product List | Glossary On
Versions: 1 2 3 4 5 6 7 8 9 10 11 12 13 14 15 16 17 18 19 20 21 22 23 24 25 26 27 28 29 30 31 32 33 34 35 36 37 38 39 40 41 42 43 44 45 46 47 48 49 50
245
ASUS43 KMKX 262300
RWRWI

WISCONSIN REGIONAL WEATHER ROUNDUP
NATIONAL WEATHER SERVICE MILWAUKEE/SULLIVAN WI
600 PM CDT SUN MAR 26 2017

NOTE: "FAIR" INDICATES FEW OR NO CLOUDS BELOW 12,000 FEET WITH NO
SIGNIFICANT WEATHER AND/OR OBSTRUCTIONS TO VISIBILITY.

WIZ001-002-006>008-014>016-023>028-270000-
NORTHWEST WISCONSIN

CITY           SKY/WX    TMP DP  RH WIND       PRES   REMARKS
SUPERIOR ARPT  CLOUDY    34  33  96 NE5       29.96S WCI  30
ASHLAND        CLOUDY    34  33  96 NE8       29.94R FOG     WCI  27
HAYWARD        CLOUDY    40  34  79 N8        29.90S WCI  34
SIREN          CLOUDY    39  36  87 N7        29.92R WCI  34
CUMBERLAND     CLOUDY    39  36  87 NW6       29.89R WCI  35
RICE LAKE      CLOUDY    42  39  88 CALM      29.90S
CHETEK         CLOUDY    41  38  89 NW3       29.88F
LADYSMITH      CLOUDY    42  38  83 N6        29.89S
EAU CLAIRE     NOT AVBL
MENOMONIE      CLOUDY    44  38  81 W5        29.89S
NEW RICHMOND   CLOUDY    41  39  93 NW7       29.90S
OSCEOLA        CLOUDY    42  38  84 N5        29.94S
$$

WIZ003>005-009-010-017-018-270000-
NORTH CENTRAL WISCONSIN

CITY           SKY/WX    TMP DP  RH WIND       PRES   REMARKS
MANITOWISH WTR CLOUDY    37  37 100 N6        29.86R WCI  32
ARBOR VITAE    DRIZZLE   42  39  92 N6        29.85R
WOODRUFF       DRIZZLE   42  39  92 N6        29.85R
RHINELANDER    LGT RAIN  39  38  96 CALM      29.86R FOG
EAGLE RIVER    DRIZZLE   38  37  99 CALM      29.85R
LAND O LAKES   CLOUDY    38  37  94 NE6       29.87S WCI  34
PHILLIPS       CLOUDY    40  37  88 N5        29.86R
TOMAHAWK       HVY RAIN  38  37  95 CALM      29.86S
MEDFORD        RAIN      39  37  95 CALM      29.85S
MERRILL        LGT RAIN  39  39 100 CALM      29.86S
$$

WIZ029-030-035-036-043>047-270000-
CENTRAL WISCONSIN

CITY           SKY/WX    TMP DP  RH WIND       PRES   REMARKS
WAUSAU         LGT RAIN  39  38  96 CALM      29.84S FOG
MOSINEE        NOT AVBL
MARSHFIELD     CLOUDY    39  37  92 NW6       29.85R WCI  35
STEVENS POINT  LGT RAIN  37  37 100 CALM      29.86S
WAUPACA        RAIN      41  40  94 CALM      29.85F
WAUTOMA        LGT RAIN  40  38  93 N5        29.86R
WISC RAPIDS    LGT RAIN  40  39  97 N3        29.87S
CAMP DOUGLAS   NOT AVBL
$$

WIZ011>013-019>022-031-037>040-048>050-270000-
NORTHEAST WISCONSIN

CITY           SKY/WX    TMP DP  RH WIND       PRES   REMARKS
ANTIGO         DRIZZLE   36  36 100 CALM      29.85S
SHAWANO        DRIZZLE   39  37  93 N5        29.86S
OCONTO         CLOUDY    37  37  97 NE5       29.86S WCI  34
STURGEON BAY   MIX PCPN  36  36 100 N6        29.86S FOG     WCI  31
GREEN BAY      CLOUDY    38  38 100 NE8       29.86R FOG     WCI  32
MANITOWOC      NOT AVBL
APPLETON       LGT RAIN  39  39 100 N8        29.83S WCI  34
CLINTONVILLE   LGT RAIN  37  37 100 NE6       29.86S WCI  33
OSHKOSH        CLOUDY    40  38  93 N6        29.84R
$$

WIZ032>034-041-042-053>061-270000-
SOUTHWEST WISCONSIN

CITY           SKY/WX    TMP DP  RH WIND       PRES   REMARKS
LA CROSSE      CLOUDY    42  40  92 W7        29.88R FOG
SPARTA         CLOUDY    40  40  97 CALM      29.88S
VIROQUA        CLOUDY    41  41 100 N6        29.84F
BOSCOBEL       CLOUDY    46  43  89 CALM      29.86S
PRAIRIE DU CHI CLOUDY    44  42  92 NW7       29.86R
PLATTEVILLE    CLOUDY    46  46 100 N7        29.84F
$$

WIZ056-057-062-063-064-067-068-270000-
SOUTH CENTRAL WISCONSIN

CITY           SKY/WX    TMP DP  RH WIND       PRES   REMARKS
REEDSBURG      DRIZZLE   41  41 100 NW3       29.86R
BARABOO/DELLS  LGT RAIN  40  38  95 CALM      29.85S
LONE ROCK      CLOUDY    44  41  89 N3        29.86R FOG
MINERAL POINT  FOG       45  45 100 NW8       29.85R VSB 3/4
MADISON        CLOUDY    43  41  93 NW6       29.84R FOG
MIDDLETON      CLOUDY    44  44 100 NW6       29.85R
WATERTOWN      CLOUDY    47  47 100 N5        29.82R
MONROE         CLOUDY    50  48  93 N6        29.82R
JANESVILLE     CLOUDY    52  52 100 NW5       29.82R FOG
$$

WIZ051-052-058>065-066-070>072-270000-
SOUTHEAST WISCONSIN

CITY           SKY/WX    TMP DP  RH WIND       PRES   REMARKS
MILWAUKEE      CLOUDY    43  40  89 NE5       29.83R FOG
WAUKESHA       NOT AVBL
MILWAUKEE/TIMM LGT RAIN  43  39  87 CALM      29.83S
RACINE         CLOUDY    44  41  89 N6        29.84R FOG
KENOSHA        CLOUDY    51  49  92 CALM      29.82R FOG
FOND DU LAC    LGT RAIN  41  38  89 N6        29.84R FOG
SHEBOYGAN      CLOUDY    40  39  97 N6        29.83S FOG
WEST BEND      DRIZZLE   43  43 100 CALM      29.83R
JUNEAU         DRIZZLE   43  42  97 N5        29.84S
$$

LSZ147-162-270000-
LAKE SUPERIOR

STATION/POSITION TIME  TEMP    WIND        PRES    WAVE
                       AIR SEA DIR/SP/G            HT/PER
                 (UTC) (F)     (DEG/KT/KT) (MB)    (FT/S)
DEVILS ISLAND    2200   34      40/  8/  9 1014.7F
PORT WING        2240   34      30/  6/  8 1014.2S
SAXON HARBOR     2240   34      10/  4/  5 1013.5S
$$

LMZ867-665-643>646-270000-
LAKE MICHIGAN

STATION/POSITION TIME  TEMP    WIND        PRES    WAVE
                       AIR SEA DIR/SP/G            HT/PER
                 (UTC) (F)     (DEG/KT/KT) (MB)    (FT/S)
CHAMBERS ISLAND  2230   33     360/  7/ 11 1011.2S
NORTHPORT PIER   2240   35        CALM     1011.5R
SISTER BAY       2136   37      30/  5/  8   N/A
KEWAUNEE LAKESHO 2230   38      10/  5/  8 1010.3F
SHEBOYGAN LAKESH 2200   37      10/ 10/ 11 1010.4F
PORT WASHINGTON  2230   40      40/  3/  6 1011.2R
MILWAUKEE LAKESH 2230   40     350/  6/  7   N/A
KENOSHA   LAKESH 2200   39      20/  4/  6 1009.8
$$

TC  - TEMPERATURE IN CELSIUS
VSB - VISIBILITY IN STATUTE MILES
WCI - WIND CHILL INDEX
HX  - HEAT INDEX





USA.gov is the U.S. government's official web portal to all federal, state and local government web resources and services.